Regional Weather Roundup
Issued by NWS

Home | Current Version | Previous Version | Graphics & Text | Print | Product List | Glossary On
Versions: 1 2 3 4 5 6 7 8 9 10 11 12 13 14 15 16 17 18 19 20 21 22 23 24 25 26 27 28 29 30 31 32 33 34 35 36 37 38 39 40 41 42 43 44 45 46 47 48 49 50
000
ASUS43 KOAX 280402
RWRNE

WEATHER ROUNDUP FOR NEBRASKA
NATIONAL WEATHER SERVICE OMAHA NE
1000 PM CST TUE JAN 27 2015

NOTES: SATELLITE DATA IS BEING USED TO AUGMENT CLOUD COVER ABOVE
       12000 FEET.
       "FAIR" INDICATES FEW OR NO CLOUDS BELOW 12,000 FEET WITH NO
       SIGNIFICANT WEATHER AND/OR OBSTRUCTIONS TO VISIBILITY.

  * THESE STATIONS DO NOT REPORT WEATHER SUCH AS RAIN...SNOW OR FOG.

NEZ001>004-019>022-054>056-280500-
NEBRASKA PANHANDLE

CITY           SKY/WX    TMP DP  RH WIND       PRES   REMARKS
SCOTTSBLUFF      N/A    N/A N/A N/A MISG      29.96S
ALLIANCE       CLEAR     35  27  72 SW5       29.94S WCI  31
CHADRON        CLEAR     38  31  76 W5        29.90R WCI  34
SIDNEY         PTCLDY    39  29  67 NW12      29.97S WCI  32
$$

NEZ057>060-069>072-079>082-280500-
SOUTHWEST NEBRASKA

CITY           SKY/WX    TMP DP  RH WIND       PRES   REMARKS
NORTH PLATTE   MOCLDY    32  25  75 CALM      29.91S
IMPERIAL       PTCLDY    44  27  51 CALM      29.92F
MCCOOK         MOCLDY    53  30  41 S3        29.90F
$$

NEZ005>010-023>029-035>040-094-280500-
NORTH CENTRAL NEBRASKA

CITY           SKY/WX    TMP DP  RH WIND       PRES   REMARKS
VALENTINE      PTCLDY    39  31  72 W7        29.86F WCI  34
BROKEN BOW     PTCLDY    34  28  79 CALM      29.90S
ORD            CLEAR     37  30  75 CALM      29.90S
$$

NEZ041-046>049-061>064-073>077-083>087-280500-
SOUTH CENTRAL NEBRASKA

CITY           SKY/WX    TMP DP  RH WIND       PRES   REMARKS
GRAND ISLAND   PTCLDY    41  31  67 SE8       29.93F
AURORA         CLEAR     37  30  76 SE10      29.94F WCI  30
HASTINGS       CLEAR     44  31  60 SE9       29.92F
KEARNEY *      CLEAR     43  28  56 S6        29.92S
$$

NEZ011>018-030>034-042>045-280500-
NORTHEAST NEBRASKA

CITY           SKY/WX    TMP DP  RH WIND       PRES   REMARKS
NORFOLK        CLEAR     42  31  64 SE13      29.94F
COLUMBUS *     CLEAR     43  28  56 SE8       29.98F
TEKAMAH        CLEAR     35  29  78 SE10      30.01F WCI  27
$$

NEZ050>053-065>068-078-088>093-280500-
SOUTHEAST NEBRASKA

CITY           SKY/WX    TMP DP  RH WIND       PRES   REMARKS
LINCOLN        CLEAR     43  30  60 SE10      30.00F
OMAHA EPPLEY   CLEAR     40  30  67 S15       30.03F WCI  32
FALLS CITY     CLEAR     40  30  67 SE10      30.04S WCI  33
$$

NEZ044-045-051>053-067-280500-
OMAHA AREA

CITY           SKY/WX    TMP DP  RH WIND       PRES   REMARKS
OMAHA EPPLEY   CLEAR     40  30  67 S15       30.03F WCI  32
OFFUTT AFB     CLEAR     39  30  70 E12       30.02F WCI  32
$$


USA.gov is the U.S. government's official web portal to all federal, state and local government web resources and services.